Torna al catalogo

ATLAS 5 CENTAUR R/B

AttivoHEO
NORAD 27500·ROCKET BODY·🇺🇸 United States

Lanciato Aug 21, 2002 da Cape Canaveral Space Force Station

Loading…

Prossimi Passaggi (prossime 24 ore)

TLE

AggiornatoSource: Space-Track

Epoca: Sep 14, 2026, 07:26 UTC

1 27500U 02038B   26257.30999931  .00135867  88092-7  17392-2 0  9990
2 27500  17.8776 276.6304 5115781 251.7274  47.8372  5.57210450243803

Traccia ATLAS 5 CENTAUR R/B in tempo reale con AllMySat

Download on the App Store